Location: Unspecified
(41.2830°S, 0.0000°E)
Time: 14:28:53
(UTC+00:00)

Envisat - Visible Passes

Search period start: 19 May 2019 00:00
Search period end: 29 May 2019 00:00
Orbit: 764 x 766 km, 98.2° (Epoch: 19 May)

Date Brightness Start Highest point End Pass type
(mag) Time Alt. Az. Time Alt. Az. Time Alt. Az.
19 May 5.4 05:17:08 10° ENE 05:20:53 21° ESE 05:24:40 10° SSE visible
19 May 4.7 19:11:46 21° N 19:11:46 21° N 19:13:27 10° N visible
20 May 3.3 06:17:39 10° NNE 06:22:45 75° ESE 06:27:55 10° S visible
20 May 4.9 18:34:37 15° NE 18:34:37 15° NE 18:35:43 10° NNE visible
20 May 5.7 20:14:49 12° NW 20:14:49 12° NW 20:15:15 10° NW visible
21 May 4.6 05:41:35 10° NE 05:46:10 34° ESE 05:50:48 10° S visible
21 May 5.0 19:37:39 19° NNW 19:37:39 19° NNW 19:39:05 10° NNW visible
22 May 5.7 05:06:35 10° E 05:09:48 17° ESE 05:13:01 10° SSE visible
22 May 4.7 19:00:30 19° NNE 19:00:30 19° NNE 19:02:03 10° N visible
23 May 3.6 06:06:32 10° NNE 06:11:33 59° ESE 06:16:37 10° S visible
23 May 5.0 18:23:20 12° NE 18:23:20 12° NE 18:23:57 10° NE visible
23 May 5.5 20:03:32 14° NW 20:03:32 14° NW 20:04:17 10° NW visible
24 May 5.0 05:30:44 10° NE 05:35:02 28° ESE 05:39:22 10° S visible
24 May 4.9 19:26:21 20° N 19:26:21 20° N 19:27:51 10° N visible
25 May 5.8 04:56:15 10° E 04:58:43 14° ESE 05:01:12 10° SSE visible
25 May 3.0 06:31:55 10° N 06:37:01 80° WNW 06:42:13 10° SSW visible
25 May 4.8 18:49:12 17° NNE 18:49:12 17° NNE 18:50:33 10° NNE visible
26 May 4.1 05:55:29 10° NE 06:00:22 47° ESE 06:05:18 10° S visible
26 May 5.3 19:52:12 16° NNW 19:52:12 16° NNW 19:53:14 10° NNW visible
27 May 5.3 05:19:59 10° ENE 05:23:55 23° ESE 05:27:52 10° SSE visible
27 May 4.8 19:15:02 20° N 19:15:02 20° N 19:16:33 10° N visible
28 May 5.9 04:46:26 10° ESE 04:47:40 11° ESE 04:48:53 10° SE visible
28 May 3.2 06:20:41 10° NNE 06:25:48 82° ESE 06:30:59 10° S visible
28 May 4.9 18:37:50 15° NE 18:37:50 15° NE 18:38:58 10° NNE visible
28 May 5.8 20:18:02 11° NW 20:18:02 11° NW 20:18:11 10° NW visible
